| time (UTC) | temp F | wind direction | speed MPH | gust MPH | rain 1hr in | rain 24hr in | rain mn in | humidity % | barometer mb |
| 20260505182711 | 59 | 3 | 2.0 | 3.0 | 0.00 | 0.00 | 0.00 | 78 | 1016.5 |
| 20260505181211 | 58 | 110 | 0.0 | 1.0 | 0.00 | 0.00 | 0.00 | 78 | 1016.4 |
| 20260505175711 | 58 | 110 | 0.0 | 2.0 | 0.00 | 0.00 | 0.00 | 79 | 1016.4 |
| 20260505174211 | 58 | 111 | 0.0 | 1.0 | 0.00 | 0.00 | 0.00 | 79 | 1016.4 |
| 20260505172711 | 58 | 110 | 0.0 | 2.0 | 0.00 | 0.00 | 0.00 | 81 | 1016.4 |
| 20260505171211 | 58 | 124 | 0.0 | 2.0 | 0.00 | 0.00 | 0.00 | 82 | 1016.3 |
| 20260505165712 | 57 | 290 | 0.0 | 0.0 | 0.00 | 0.00 | 0.00 | 80 | 1016.3 |
| 20260505164211 | 57 | 288 | 0.0 | 2.0 | 0.00 | 0.00 | 0.00 | 80 | 1016.3 |
| 20260505162711 | 57 | 288 | 0.0 | 2.0 | 0.00 | 0.00 | 0.00 | 80 | 1016.3 |
| 20260505161211 | 57 | 290 | 2.0 | 2.0 | 0.00 | 0.00 | 0.00 | 81 | 1016.3 |
| 20260505152711 | 56 | 190 | 0.0 | 3.0 | 0.00 | 0.00 | 0.00 | 83 | 1016.3 |
| 20260505151211 | 56 | 213 | 0.0 | 2.0 | 0.00 | 0.00 | 0.00 | 83 | 1016.1 |
| 20260505124210 | 54 | 240 | 3.0 | 3.0 | 0.00 | 0.00 | 0.00 | 86 | 1015.4 |
| 20260505122710 | 54 | 254 | 1.0 | 3.0 | 0.00 | 0.00 | 0.00 | 86 | 1015.2 |
| 20260505121211 | 54 | 236 | 3.0 | 3.0 | 0.00 | 0.00 | 0.00 | 87 | 1015.0 |
| 20260505115711 | 54 | 288 | 0.0 | 4.0 | 0.00 | 0.00 | 0.00 | 87 | 1015.1 |
| 20260505114211 | 54 | 222 | 2.0 | 3.0 | 0.00 | 0.00 | 0.00 | 87 | 1015.1 |
| 20260505112711 | 54 | 268 | 0.0 | 3.0 | 0.00 | 0.00 | 0.00 | 88 | 1015.2 |
| 20260505111211 | 54 | 222 | 0.0 | 3.0 | 0.00 | 0.00 | 0.00 | 88 | 1015.2 |
| 20260505101211 | 54 | 228 | 2.0 | 5.0 | 0.00 | 0.00 | 0.00 | 87 | 1014.9 |
| 20260505095710 | 54 | 236 | 3.0 | 5.0 | 0.00 | 0.00 | 0.00 | 87 | 1014.9 |
| 20260505094210 | 55 | 230 | 0.0 | 4.0 | 0.00 | 0.00 | 0.00 | 87 | 1014.9 |
| 20260505092711 | 55 | 184 | 1.0 | 6.0 | 0.00 | 0.00 | 0.00 | 87 | 1014.8 |
| 20260505091211 | 55 | 224 | 2.0 | 3.0 | 0.00 | 0.00 | 0.00 | 86 | 1014.8 |
| 20260505085710 | 55 | 188 | 2.0 | 6.0 | 0.00 | 0.00 | 0.00 | 86 | 1014.7 |
| 20260505084211 | 55 | 223 | 0.0 | 5.0 | 0.00 | 0.00 | 0.00 | 86 | 1014.8 |
| 20260505082710 | 55 | 223 | 3.0 | 5.0 | 0.00 | 0.00 | 0.00 | 86 | 1014.9 |
| 20260505081210 | 55 | 228 | 0.0 | 3.0 | 0.00 | 0.00 | 0.00 | 86 | 1014.9 |
| 20260505075711 | 55 | 197 | 2.0 | 7.0 | 0.00 | 0.00 | 0.00 | 86 | 1014.9 |
| 20260505074210 | 55 | 237 | 0.0 | 7.0 | 0.00 | 0.00 | 0.00 | 85 | 1014.9 |
| 20260505072710 | 55 | 249 | 2.0 | 6.0 | 0.00 | 0.00 | 0.00 | 85 | 1014.9 |
| 20260505071211 | 55 | 232 | 3.0 | 6.0 | 0.00 | 0.00 | 0.00 | 85 | 1014.9 |
| 20260505065711 | 55 | 246 | 0.0 | 6.0 | 0.00 | 0.00 | 0.00 | 85 | 1014.8 |
| 20260505064210 | 56 | 215 | 3.0 | 8.0 | 0.00 | 0.00 | 0.00 | 85 | 1014.8 |
| 20260505062711 | 56 | 246 | 3.0 | 7.0 | 0.00 | 0.00 | 0.00 | 85 | 1014.7 |
| 20260505061210 | 56 | 250 | 1.0 | 8.0 | 0.00 | 0.00 | 0.00 | 84 | 1014.7 |
| 20260505055710 | 56 | 234 | 2.0 | 6.0 | 0.00 | 0.00 | 0.00 | 84 | 1014.7 |
| 20260505054210 | 56 | 225 | 3.0 | 8.0 | 0.00 | 0.00 | 0.00 | 84 | 1014.6 |
| 20260505052711 | 56 | 273 | 3.0 | 9.0 | 0.00 | 0.00 | 0.00 | 83 | 1014.5 |
| 20260505051210 | 56 | 205 | 4.0 | 10.0 | 0.00 | 0.00 | 0.00 | 84 | 1014.5 |
| 20260505041210 | 55 | 209 | 2.0 | 6.0 | 0.00 | 0.00 | 0.00 | 85 | 1013.8 |
| 20260505035711 | 56 | 217 | 0.0 | 6.0 | 0.00 | 0.00 | 0.00 | 84 | 1013.6 |
| 20260505034211 | 56 | 229 | 1.0 | 7.0 | 0.00 | 0.00 | 0.00 | 83 | 1013.5 |
| 20260505032710 | 57 | 238 | 6.0 | 11.0 | 0.00 | 0.00 | 0.00 | 82 | 1013.2 |
| 20260505031210 | 58 | 243 | 6.0 | 10.0 | 0.00 | 0.00 | 0.00 | 81 | 1013.1 |
| 20260505025710 | 58 | 233 | 6.0 | 10.0 | 0.00 | 0.00 | 0.00 | 80 | 1012.7 |
| 20260505024211 | 59 | 262 | 7.0 | 13.0 | 0.00 | 0.00 | 0.00 | 78 | 1012.5 |
| 20260505022710 | 60 | 215 | 1.0 | 11.0 | 0.00 | 0.00 | 0.00 | 77 | 1012.3 |
| 20260505021210 | 61 | 263 | 4.0 | 13.0 | 0.00 | 0.00 | 0.00 | 75 | 1012.3 |
| 20260505015710 | 63 | 255 | 10.0 | 13.0 | 0.00 | 0.00 | 0.00 | 72 | 1012.3 |
| 20260505014210 | 64 | 255 | 10.0 | 14.0 | 0.00 | 0.00 | 0.00 | 71 | 1012.3 |
| 20260505012710 | 65 | 164 | 6.0 | 10.0 | 0.00 | 0.00 | 0.00 | 70 | 1012.2 |
| 20260505011210 | 65 | 174 | 3.0 | 14.0 | 0.00 | 0.00 | 0.00 | 70 | 1012.3 |
| 20260505005710 | 66 | 258 | 5.0 | 9.0 | 0.00 | 0.00 | 0.00 | 69 | 1012.4 |
| 20260505004210 | 67 | 257 | 9.0 | 13.0 | 0.00 | 0.00 | 0.00 | 69 | 1012.4 |
| 20260505002710 | 68 | 235 | 6.0 | 13.0 | 0.00 | 0.00 | 0.00 | 69 | 1012.2 |
| 20260505001210 | 68 | 239 | 8.0 | 12.0 | 0.00 | 0.00 | 0.00 | 68 | 1012.2 |
| 20260504235710 | 68 | 268 | 7.0 | 10.0 | 0.00 | 0.00 | 0.00 | 68 | 1012.3 |
| 20260504234210 | 68 | 222 | 10.0 | 10.0 | 0.00 | 0.00 | 0.00 | 68 | 1012.3 |
| 20260504232710 | 68 | 190 | 3.0 | 12.0 | 0.00 | 0.00 | 0.00 | 68 | 1012.4 |
| 20260504231210 | 68 | 228 | 8.0 | 11.0 | 0.00 | 0.00 | 0.00 | 69 | 1012.5 |
| 20260504225710 | 69 | 225 | 5.0 | 10.0 | 0.00 | 0.00 | 0.00 | 68 | 1012.7 |
| 20260504224210 | 69 | 191 | 5.0 | 12.0 | 0.00 | 0.00 | 0.00 | 68 | 1012.8 |
| 20260504222710 | 69 | 289 | 9.0 | 10.0 | 0.00 | 0.00 | 0.00 | 67 | 1013.0 |
| 20260504221210 | 69 | 199 | 6.0 | 10.0 | 0.00 | 0.00 | 0.00 | 67 | 1013.2 |
| 20260504215710 | 67 | 268 | 4.0 | 11.0 | 0.00 | 0.00 | 0.00 | 69 | 1013.3 |
| 20260504214210 | 67 | 247 | 3.0 | 6.0 | 0.00 | 0.00 | 0.00 | 67 | 1013.4 |
| 20260504212710 | 66 | 226 | 2.0 | 5.0 | 0.00 | 0.00 | 0.00 | 71 | 1013.5 |
| 20260504211210 | 67 | 252 | 6.0 | 9.0 | 0.00 | 0.00 | 0.00 | 69 | 1013.6 |
| 20260504205710 | 65 | 199 | 1.0 | 6.0 | 0.00 | 0.00 | 0.00 | 73 | 1013.7 |
| 20260504204210 | 63 | 184 | 1.0 | 5.0 | 0.00 | 0.00 | 0.00 | 74 | 1013.9 |
| 20260504202709 | 63 | 185 | 2.0 | 6.0 | 0.00 | 0.00 | 0.00 | 75 | 1013.9 |
| 20260504201210 | 62 | 226 | 3.0 | 5.0 | 0.00 | 0.00 | 0.00 | 74 | 1014.0 |
| 20260504195709 | 62 | 229 | 3.0 | 6.0 | 0.00 | 0.00 | 0.00 | 75 | 1014.0 |
| 20260504194210 | 62 | 182 | 2.0 | 7.0 | 0.00 | 0.00 | 0.00 | 77 | 1014.0 |
| 20260504192710 | 61 | 294 | 4.0 | 8.0 | 0.00 | 0.00 | 0.00 | 76 | 1014.1 |
| 20260504191210 | 60 | 222 | 2.0 | 3.0 | 0.00 | 0.00 | 0.00 | 76 | 1014.2 |
| 20260504185710 | 60 | 227 | 1.0 | 7.0 | 0.00 | 0.00 | 0.00 | 80 | 1014.3 |
| 20260504184209 | 59 | 216 | 0.0 | 4.0 | 0.00 | 0.00 | 0.00 | 79 | 1014.5 |